Regional Weather Roundup
Issued by NWS

Home | Current Version | Previous Version | Text Only | Print | Product List | Glossary On
Versions: 1 2 3 4 5 6 7 8 9 10 11 12 13 14 15 16 17 18 19 20 21 22 23 24 25 26 27 28 29 30 31 32 33 34 35 36 37 38 39 40 41 42 43 44 45 46 47 48 49 50
000
ASUS43 KLSX 252007
RWRMO

WEATHER SUMMARY FOR MISSOURI
NATIONAL WEATHER SERVICE SPRINGFIELD MO
300 PM CDT SAT OCT 25 2014

NOTE: "FAIR" INDICATES FEW OR NO CLOUDS BELOW 12,000 FEET WITH NO
       SIGNIFICANT WEATHER AND/OR OBSTRUCTIONS TO VISIBILITY.
       CURRENT SKY AND/OR WEATHER CONDITIONS ARE NOT AVAILABLE FOR
       CHILLICOTHE AND FARMINGTON.

MOZ001>031-035>038-043-044-053-054-252100-
...NORTHERN AND WESTERN MISSOURI...

CITY           SKY/WX    TMP DP  RH WIND       PRES   REMARKS
KANSAS CTY INT MOSUNNY   78  53  41 E5        30.04F
KANSAS C DTWN  SUNNY     80  53  39 CALM      30.02F
LEE`S SUMMIT   SUNNY     79  56  45 CALM      30.04F
ST JOSEPH      SUNNY     79  48  33 CALM      30.04F
CHILLICOTHE      N/A     80  50  34 NW3       30.04F
KIRKSVILLE     SUNNY     76  50  40 N6        30.05S

$$
MOZ066>068-077>081-088>096-101>105-252100-
...SOUTHWEST MISSOURI...

CITY           SKY/WX    TMP DP  RH WIND       PRES   REMARKS
SPRINGFIELD    SUNNY     82  63  52 W5        30.04F
JOPLIN         SUNNY     82  65  56 VRB3      30.04F

$$
MOZ032>034-039>042-045>050-055>058-069>072-252100-
...CENTRAL MISSOURI...

CITY           SKY/WX    TMP DP  RH WIND       PRES   REMARKS
COLUMBIA       SUNNY     80  58  46 VRB3      30.03F
JEFFERSON CITY SUNNY     81  56  42 VRB3      30.01F
ROLLA          SUNNY     79  63  57 N5        30.03S
SEDALIA        HAZE      78  62  57 CALM      30.04F VSB 3/4
WHITEMAN AFB   SUNNY     77  64  64 NE3       30.03F
OSAGE BEACH    SUNNY     81  61  50 N6        30.03F

$$
MOZ051-052-059>065-252100-
...EAST CENTRAL MISSOURI...

CITY           SKY/WX    TMP DP  RH WIND       PRES   REMARKS
ST LOUIS INTL  MOSUNNY   81  58  45 W8        30.02F
SPIRIT OF STL  SUNNY     80  55  42 N5        30.00F
ST CHARLES     SUNNY     79  50  36 W7        30.00F

$$
MOZ072>076-082>087-097>100-106>115-252100-
...SOUTH CENTRAL AND SOUTHEAST MISSOURI...

CITY           SKY/WX    TMP DP  RH WIND       PRES   REMARKS
CAPE GIRARDEAU SUNNY     81  62  52 NW6       30.00F
FARMINGTON     SUNNY     81  57  44 CALM      30.04F
POPLAR BLUFF   SUNNY     81  63  54 S5        29.99F
WEST PLAINS    SUNNY     81  62  52 CALM      30.04F

$$



USA.gov is the U.S. government's official web portal to all federal, state and local government web resources and services.